#timestamp,LO_Frequency,Hit,StdDev 
1538456415.2,286047000.1,N
1538456435.0,286047000.6,N
1538456435.9,286047000.6,N
1538456455.7,286047002.6,N
1538456475.6,286046998.4,N
1538456495.4,286046998.4,N
1538456515.3,286047002.5,N
1538456535.1,286047001.6,N
1538456536.0,286047001.6,N
1538456555.8,286047000.3,N
1538456575.7,286047000.9,N
1538456595.9,286046996.9,N
1538456615.7,286046999.6,N
1538456635.6,286047002.3,N
1538456655.4,286047005.7,Y
1538456675.2,286047004.3,P
1538456695.1,286047002.8,N
1538456696.0,286047002.8,N
1538456715.8,286047002.6,N
1538456735.7,286046998.2,N
1538456755.5,286046996.9,N
1538456775.3,286046998.7,N
1538456795.2,286047004.2,N
1538456815.9,286047003.0,N
1538456835.7,286047002.8,N
1538456855.6,286046999.7,N
1538456875.4,286046999.4,N
1538456895.2,286046998.2,N
1538456915.1,286046999.5,N
1538456916.0,286046999.5,N
1538456935.8,286046998.4,N
1538456955.7,286046998.2,N
1538456975.5,286047002.4,N
1538456995.3,286046999.9,N
1538457015.2,286046998.8,N
1538457035.0,286046999.5,N
1538457035.9,286046999.5,N
1538457055.8,286046998.7,N
1538457075.6,286047000.4,N
1538457095.4,286046998.6,N
1538457115.3,286046999.2,N
1538457135.1,286047000.9,N
1538457155.9,286047000.3,N
1538457175.7,286047000.1,N
1538457195.5,286047001.1,N
1538457215.4,286047000.8,N
1538457235.2,286047003.8,N
1538457255.0,286047004.3,N
1538457255.9,286047004.3,N
1538457275.8,286047002.0,N
1538457295.6,286047002.3,N
1538457315.5,286047000.2,N
1538457335.3,286047000.8,N
1538457355.1,286047001.2,N
1538457375.9,286047000.0,N
1538457395.7,286046999.6,N
1538457415.5,286047000.6,N
1538457435.4,286047001.3,N
1538457455.2,286047001.9,N
1538457475.0,286047002.7,N
1538457476.0,286047002.7,N
1538457495.8,286047000.4,N
1538457515.6,286047000.4,N
1538457535.5,286046996.6,N
1538457555.3,286046996.8,N
1538457575.1,286047000.7,N
1538457595.9,286047002.4,N
1538457615.7,286046999.9,N
1538457635.5,286047002.8,N
1538457655.4,286047000.1,N
1538457675.2,286046998.6,N
1538457695.1,286047000.3,N
1538457696.0,286047000.3,N
1538457715.8,286047000.1,N
1538457735.6,286046999.8,N
1538457755.5,286047005.6,Y
1538457775.3,286047005.2,P
1538457795.1,286047007.3,P
1538457815.9,286047006.8,N
1538457835.7,286047008.5,Y
1538457855.6,286047000.0,P
1538457875.4,286047004.0,N
1538457895.2,286046998.4,N
1538457915.1,286046997.8,N
1538457916.0,286046997.8,N
1538457935.8,286046996.8,N
1538457955.6,286046997.1,N
1538457975.5,286046995.6,N
1538457995.3,286046995.0,N
1538458015.2,286046998.1,N
1538458035.9,286046998.8,N
1538458055.7,286047000.2,N
1538458075.6,286047000.3,N
1538458095.4,286046997.8,N
1538458115.2,286046995.2,N
1538458135.1,286046996.0,N
1538458136.0,286046996.0,N
1538458155.8,286046994.5,N
1538458175.6,286046995.9,N
1538458195.5,286046995.4,N
1538458215.3,286046994.7,N
1538458235.2,286046993.7,N
1538458255.9,286046996.4,N
1538458275.7,286046996.7,N
1538458295.6,286046996.3,N
1538458315.4,286046999.4,N
1538458335.2,286046997.4,N
1538458355.1,286046997.5,N
1538458356.0,286046997.5,N
1538458375.8,286046997.7,N
1538458395.7,286046995.8,N
1538458415.5,286046997.4,N
1538458435.3,286046999.5,N
1538458455.2,286046998.1,N
1538458475.0,286046997.4,N
1538458475.9,286046997.4,N
1538458495.8,286046995.3,N
1538458515.6,286046996.8,N
1538458535.4,286046993.7,Y
1538458555.3,286046997.3,P
1538458575.1,286046995.6,P
1538458595.8,286046994.0,P
1538458615.7,286046995.6,Y
1538458635.5,286047001.3,P
1538458655.4,286047006.3,N
1538458675.2,286047005.2,N
1538458695.0,286047001.4,N
1538458695.9,286047001.4,N
1538458715.8,286047002.7,N
1538458735.6,286047002.7,N
1538458755.4,286047002.4,N
1538458775.3,286047002.2,N
1538458795.1,286047004.4,N
1538458815.8,286047003.4,N
1538458835.7,286047003.8,N
1538458855.5,286047003.7,N
1538458875.4,286047004.1,N
1538458895.2,286047005.8,N
1538458915.0,286047008.2,Y
1538458915.9,286047008.2,P
1538458935.8,286047005.2,N
1538458955.6,286047004.4,N
1538458975.4,286047001.7,N
1538458995.3,286047001.3,N
1538459015.1,286047003.7,N
1538459035.9,286047003.0,N
1538459055.7,286047003.2,N
1538459075.5,286047002.5,N
1538459095.4,286046999.7,N
1538459115.2,286047000.0,N
1538459135.0,286047002.7,N
1538459135.9,286047002.7,N
1538459155.8,286047001.3,N
1538459175.6,286047003.8,N
1538459195.4,286047004.8,N
1538459215.3,286047004.8,N
1538459235.1,286047005.0,N
1538459255.9,286047005.0,N
1538459275.7,286047008.0,Y
1538459295.5,286047002.1,P
1538459315.4,286047002.2,P
1538459335.2,286047002.2,P
1538459355.0,286047001.5,N
1538459355.9,286047001.5,N
1538459375.8,286047005.8,Y
1538459395.6,286047001.0,P
1538459415.5,286046998.2,P
1538459435.3,286046999.1,N
1538459455.1,286046997.7,N
1538459475.9,286046997.9,N
1538459495.7,286046995.7,N
1538459515.5,286046996.3,N
1538459535.4,286046997.2,N
1538459555.2,286046995.7,N
1538459575.1,286046995.8,N
1538459576.0,286046995.8,N
1538459595.8,286046991.9,Y
1538459615.6,286046996.9,P
1538459635.5,286046998.5,P
1538459655.3,286046999.9,N
1538459675.1,286047000.2,N
1538459695.9,286046998.4,N
1538459715.7,286047000.5,N
1538459735.6,286047004.1,Y
1538459755.4,286047004.0,P
1538459775.2,286047000.3,N
1538459795.1,286047002.7,N
1538459796.0,286047002.7,N
1538459815.8,286046998.3,N
1538459835.6,286046996.6,N
1538459855.5,286046998.6,N
1538459875.3,286047001.0,N
1538459895.2,286047000.7,N
1538459915.9,286047004.2,N
1538459935.7,286047003.0,N
1538459955.6,286047002.5,N
1538459975.4,286047004.4,N
1538459995.2,286047003.4,N
